Regional Weather Roundup
Issued by NWS New Orleans/Baton Rouge, LA

Home | Current Version | Previous Version | Graphics & Text | Print | Product List | Glossary On
Versions: 1 2 3 4 5 6 7 8 9 10 11 12 13 14 15 16 17 18 19 20 21 22 23 24 25 26 27 28 29 30 31 32 33 34 35 36 37 38 39 40 41 42 43 44 45 46 47 48 49 50
592
ASUS44 KLIX 170310
RWRLIX
NEW ORLEANS REGIONAL WEATHER ROUNDUP
NATIONAL WEATHER SERVICE NEW ORLEANS LA
1000 PM CDT TUE SEP 16 2014

NOTE: "FAIR" INDICATES FEW OR NO CLOUDS BELOW 12,000 FEET WITH NO
      SIGNIFICANT WEATHER AND/OR OBSTRUCTIONS TO VISIBILITY.
      SKY/WX - SKY CONDITION AND SIGNIFICANT WEATHER.
      TMP - AIR TEMPERATURE.     DP    - DEWPOINT TEMPERATURE.
      RH  - RELATIVE HUMIDITY.   PRES  - PRESSURE.
      HI  - HEAT INDEX.          WCI   - WIND CHILL INDEX.

*  THESE STATIONS ARE NOT NWS OR FAA STATIONS AND ARE NOT UNDER
   NWS QUALITY CONTROL.

LAZ038-040-048-061>063-065>067-069-170400-
SOUTHEAST LOUISIANA

CITY           SKY/WX    TMP DP  RH WIND       PRES   REMARKS
N.O. AUDUBON   NOT AVBL
N.O. INTL ARPT CLOUDY    77  74  90 NW5       30.03R
N.O. LAKEFRONT CLOUDY    80  74  81 NW12      30.03R
N.O. DOWNTOWN*   N/A     79  72  78 NW3       30.03R
SLIDELL        CLOUDY    74  72  93 NE5       30.03R
BATON ROUGE    CLOUDY    73  72  96 NW6       30.03R
BOOTHVILLE     CLOUDY    79  76  90 NW6       30.03R
BELLE CHASSE   CLOUDY    77  73  87 W3        30.02R
BOGALUSA*      CLOUDY    76  72  87 CALM      30.07R
GALLIANO*      NOT AVBL
NEW ROADS*     LGT RAIN  74  73  98 CALM      30.04S
GONZALES*        N/A     72  72 100 N5        30.02R
HAMMOND*       LGT RAIN  75  72  88 CALM      30.05S
HOUMA*         LGT RAIN  76  73  89 CALM      30.02R
PORT FOURCHON* NOT AVBL

$$

MSZ070-080>082-170400-
SOUTHERN MISSISSIPPI

CITY           SKY/WX    TMP DP  RH WIND       PRES   REMARKS
MCCOMB         LGT RAIN  73  71  93 W3        30.05S
GULFPORT       CLOUDY    74  72  93 NW9       30.02R
BILOXI         CLOUDY    75  73  95 NE6       30.03R
PASCAGOULA     LGT RAIN  74  72  93 N10       30.03R

$$

COASTAL OBSERVATIONS
LAKE AND NEARSHORE STATIONS

STATION/POSITION TIME  TEMP    WIND        PRES    WAVE
                       AIR SEA DIR/SP/G            HT/PER
                 (UTC) (F)     (DEG/KT/KT) (MB)    (FT/S)
PASCAGOULA       0300   75     340/  7/  8 1016.0
WAVELAND YACHT   0300   80     260/  2/  3 1016.1
GRAND ISLE       0300   81 85  330/  6/  8 1017.3
SOUTHWEST PASS   0300   82 90  310/  6/ 12 1017.0
NEW CANAL        0300   80 83  310/  3/  6 1017.1
SHELL BEACH      0300   80 80  330/  5/  7 1016.6

OFFSHORE STATIONS

STATION/POSITION TIME  TEMP    WIND        PRES    WAVE
                       AIR SEA DIR/SP/G            HT/PER
                 (UTC) (F)     (DEG/KT/KT) (MB)    (FT/S)
64 S DAUPHIN ISL 0151   78 85  300/ 14/ 16 1016.1    2/ 4

$$




USA.gov is the U.S. government's official web portal to all federal, state and local government web resources and services.